This is the latest recevied weather packets stored in our database for station/object KG4AGD. If no packets are shown the sender has not sent any weather packets the latest 10 day(s).
| Time | Temp. | Humidity | Pressure | Rain* | Wind** | Luminosity | Snow |
|---|---|---|---|---|---|---|---|
| 1777999040 | 25.56° C | 56% | 1018.2 hPa | 0 mm | - | - | - |
| 1777998738 | 25.56° C | 56% | 1018.2 hPa | 0 mm | - | - | - |
| 1777998436 | 25.56° C | 56% | 1018.6 hPa | 0 mm | - | - | - |
| 1777998133 | 25.56° C | 58% | 1018.2 hPa | 0 mm | - | - | - |
| 1777997831 | 25° C | 55% | 1018.6 hPa | 0 mm | - | - | - |
| 1777997528 | 25.56° C | 55% | 1018.6 hPa | 0 mm | - | - | - |
| 1777997226 | 25.56° C | 55% | 1018.6 hPa | 0 mm | - | - | - |
| 1777996924 | 25.56° C | 56% | 1018.9 hPa | 0 mm | - | - | - |
| 1777996621 | 25.56° C | 55% | 1018.9 hPa | 0 mm | - | - | - |
| 1777996319 | 25.56° C | 55% | 1018.9 hPa | 0 mm | - | - | - |
| 1777996016 | 25° C | 58% | 1018.9 hPa | 0 mm | - | - | - |
| 1777995714 | 24.44° C | 58% | 1018.9 hPa | 0 mm | - | - | - |
| 1777995412 | 24.44° C | 58% | 1018.9 hPa | 0 mm | - | - | - |
| 1777995110 | 24.44° C | 59% | 1018.9 hPa | 0 mm | - | - | - |
| 1777994808 | 24.44° C | 61% | 1018.9 hPa | 0 mm | - | - | - |
| 1777994505 | 24.44° C | 58% | 1018.9 hPa | 0 mm | - | - | - |
| 1777994203 | 24.44° C | 60% | 1019.3 hPa | 0 mm | - | - | - |
| 1777993901 | 23.89° C | 62% | 1019.3 hPa | 0 mm | - | - | - |
| 1777993598 | 23.89° C | 62% | 1019.3 hPa | 0 mm | - | - | - |
| 1777993296 | 24.44° C | 64% | 1018.9 hPa | 0 mm | - | - | - |
| 1777992994 | 23.33° C | 63% | 1018.9 hPa | 0 mm | - | - | - |
| 1777992692 | 22.78° C | 65% | 1019.3 hPa | 0 mm | - | - | - |
| 1777992390 | 23.33° C | 65% | 1018.9 hPa | 0 mm | - | - | - |
| 1777992088 | 22.78° C | 66% | 1018.9 hPa | 0 mm | - | - | - |
| 1777991785 | 22.22° C | 66% | 1018.9 hPa | 0 mm | - | - | - |
* Rain since midnight (hover to see other rain measurements)
** Current wind speed in m/s (hover to see current wind gust speed)